[Date Prev][Date Next][Thread Prev][Thread Next] - [Date Index][Thread Index][Author Index]
2 Line ISS Keps 9-25
- Subject: [sarex] 2 Line ISS Keps 9-25
- From: "Dave Larsen PhD" <doc@xxxxxxxxxxx>
- Date: Thu, 25 Sep 2003 02:38:32 -0700
ISS
1 25544U 98067A 03268.36875844 .00014948 00000-0 16927-3 0 5534
2 25544 51.6298 235.5061 0005495 290.2767 233.3349 15.62635311276657
----
Via the sarex mailing list at AMSAT.ORG courtesy of AMSAT-NA.
To unsubscribe, send "unsubscribe sarex" to Majordomo@amsat.org
AMSAT Home